Hourly Data Report for October 04, 2017

All times are specified in Local Standard Time (LST). Add 1 hour to adjust for Daylight Saving Time where and when it is observed.

LAC LA MARTRE
NORTHWEST TERRITORIES

63°08'01.070" N
117°14'41.050" W
271.30 m
2202678
71163
WMT

Download Data

Hourly Data (October 2017)
Hourly Data Report for October 4, 2017
Temp Definition
°C
Dew Point Temp Definition
°C
Rel Hum Definition
%
Wind Dir Definition
10's deg

Wind Spd Definition
km/h
Visibility Definition
km
Stn Press Definition
kPa
Hmdx Definition


Wind Chill Definition


Weather Definition


TIME
00:00 -1.2 -1.8 96 7 2   98.81   -2 LegendNANA
01:00 -0.5 -1.0 97 18 1   98.85   -1 LegendNANA
02:00 -2.9 -3.7 94   0   98.89     LegendNANA
03:00 -3.2 -3.5 97 8 6   98.91   -6 LegendNANA
04:00 -1.9 -2.1 98 10 4   98.90   -3 LegendNANA
05:00 -3.1 -3.3 98 9 5   98.88   -5 LegendNANA
06:00 -2.8 -3.2 98 7 7   98.88   -6 LegendNANA
07:00 -2.0 -2.3 98 9 5   98.88   -4 LegendNANA
08:00 -0.7 -1.0 98 15 8   98.88   -4 LegendNANA
09:00 -0.4 -0.8 98 15 7   98.87   -3 LegendNANA
10:00 0.1 -0.3 97 12 8   98.84     LegendNANA
11:00 0.5 -0.1 96 11 9   98.83     LegendNANA
12:00 0.9 -0.3 91 12 11   98.80     LegendNANA
13:00 0.9 0.0 94 12 8   98.78     LegendNANA
14:00 0.9 -0.2 93 11 12   98.76     LegendNANA
15:00 1.0 -0.1 93 11 10   98.76     LegendNANA
16:00 1.0 -0.1 93 10 9   98.73     LegendNANA
17:00 0.7 -0.3 93 10 11   98.68     LegendNANA
18:00 0.5 -0.4 94 11 10   98.67     LegendNANA
19:00 0.6 -0.6 92 9 7   98.63     LegendNANA
20:00 0.2 -0.8 94 9 7   98.59     LegendNANA
21:00 0.5 -0.9 90 10 11   98.51     LegendNANA
22:00 0.6 -1.0 89 10 9   98.52     LegendNANA
23:00 0.9 -1.0 88 10 12   98.47     LegendNANA

Notes on Data Quality.

Legend

  • E = Estimated
  • M = Missing
  • NA = Not Available
  • ‡ = Partner data that is not subject to review by the National Climate Archives
Date modified: